Location: Gleizolles
(44.4833°N, 6.7667°E)
Time: 16:03:23
(UTC+00:00)

Altair - Pass Details

Date: 03 July 2024
Orbit: 1502 x 1681 km, 47.2° (Epoch: 13 July)

Event Time Altitude Azimuth Distance (km) Brightness Sun altitude
Rises 05:00:43 0° 294° (WNW) 4,684 9.6 9.7°
Reaches altitude 10° 05:03:56 10° 287° (WNW) 3,718 9.1 10.2°
Maximum altitude 05:12:29 41° 222° (SW) 2,144 8.0 11.6°
Drops below altitude 10° 05:21:21 10° 156° (SSE) 3,835 9.7 13.1°
Sets 05:24:44 0° 150° (SSE) 4,843 10.3 13.7°
